SALSAT
1 46495U 20068K   25225.52376874  .00006526  00000-0  27597-3 0  9994
2 46495  97.8659 206.6065 0009283 301.4221  58.6106 15.23555726268412
TUBIN
1 48900U 21059X   25225.50883225  .00049831  00000-0  48632-3 0  9998
2 48900  97.6778  40.2892 0002352 354.7087   5.4147 15.66061604230188
LEDSAT
1 49069U 21073D   25225.20419000  .00128030  00000-0  10295-2 0  9996
2 49069  97.3829 309.8500 0008912 196.7575 163.3395 15.70514402221546
CUTE
1 49263U 21088D   25225.18295353  .00015315  00000-0  27693-3 0  9990
2 49263  97.4480 303.4253 0006440  11.9320 348.2083 15.49764167214429
TeikyoSat 4
1 49396U 21102B   25225.58942258  .00001971  00000-0  13240-3 0  9997
2 49396  97.4067 261.6663 0010825 270.4820  89.5168 15.07876789206345
Z-Sat
1 49399U 21102E   25225.55991090  .00003098  00000-0  16948-3 0  9995
2 49399  97.3756 265.1444 0016530 235.0838 124.8841 15.14878450206811
KOSEN 1
1 49402U 21102H   25225.55279641  .00005877  00000-0  26705-3 0  9990
2 49402  97.3656 269.0542 0015016 205.5287 154.5208 15.21039014207164
HO-113
1 50466U 21131B   25225.55193687  .00000419  00000-0  14449-3 0  9998
2 50466  98.5098 314.5875 0003111 311.4358  48.6563 14.40878242190806
SNUGLITE 2
1 52899U 22065F   25225.38322508  .00001106  00000-0  22343-3 0  9990
2 52899  98.1773   6.7598 0006327 270.0158  90.0319 14.63343501165965
UmKA 1 (RS40S)
1 57172U 23091G   25225.57057423  .00005710  00000-0  30000-3 0  9995
2 57172  97.5527 280.6232 0015753 108.8964 251.3978 15.15986637117329
CubeBel-2 (EU11S)
1 57175U 23091K   25225.55406740  .00008360  00000-0  38638-3 0  9995
2 57175  97.5526 282.1663 0013456 114.7166 245.5471 15.20353183117428
VERONIKA
1 58261U 23174F   25225.45666683  .03339722  24524-5  14069-2 0  9992
2 58261  97.4003 316.8999 0014613 264.1030  95.8595 16.22705075 98950
ENSO
1 58470U 23185J   25225.52148758  .00078935  00000-0  85612-3 0  9996
2 58470  97.3676 303.0309 0006950 196.5101 163.5932 15.63244875 95159
EIRSAT-1
1 58472U 23185L   25225.49113229  .00357397  48289-4  13122-2 0  9992
2 58472  97.3573 306.4921 0007653 224.2367 135.8294 15.88234824 95386
SONATE-2
1 59112U 24043Q   25224.96219424  .00017499  00000-0  47471-3 0  9999
2 59112  97.5215 357.5434 0009786 240.9489 119.0776 15.37637334 80221
MO-122
1 60209U 24125G   25225.54452616  .00018106  00000-0  48141-3 0  9997
2 60209  97.2725  76.5040 0016161 262.3686  97.5724 15.38160077 61932
GRBBeta
1 60237U 24128C   25225.54100451  .00003910  00000-0  29431-3 0  9996
2 60237  61.9900 212.9764 0055915  71.3543 289.3608 15.03096583 59969
Curium One
1 60242U 24128H   25225.52990120  .00007422  00000-0  50446-3 0  9992
2 60242  61.9798 210.3002 0056013  67.7654 292.9366 15.05911392 60014
ROBUSTA-3A
1 60243U 24128J   25225.55323561  .00006205  00000-0  43075-3 0  9993
2 60243  61.9869 211.2688 0055075  65.3507 295.3307 15.05393379 60002
CatSat
1 60246U 24125J   25225.00635988  .00017283  00000-0  55077-3 0  9995
2 60246  97.2536  74.4269 0040222 222.6716 137.1400 15.31798230 59841
HYPERVIEW-1G (RS66S)
1 61772U 24199AP  25225.60088925  .00021880  00000-0  58733-3 0  9990
2 61772  97.3433  94.3972 0011293 326.3123  33.7403 15.37896792 86948
AO-123
1 61781U 24199AY  25225.57801373  .00006353  00000-0  22672-3 0  9997
2 61781  97.3454  92.5019 0014555 333.5464  26.5032 15.29125058 86810
ZIMSAT 2
1 61783U 24199BA  25225.58992645  .00042328  00000-0  88949-3 0  9994
2 61783  97.3397  95.5780 0009832 320.7953  39.2583 15.45166815 90179
HADES-R (SO-124)
1 62690U 25009CK  25224.72379003  .00039121  00000-0  12126-2 0  9995
2 62690  97.4053 305.4483 0003271 203.9160 156.1930 15.33316916 31966
HYDRA-T
1 62692U 25009CM  25225.47933497  .00051060  00000-0  15573-2 0  9998
2 62692  97.4057 306.2699 0003208 197.0991 163.0144 15.33766190 32086
JINJUSat 1B
1 63210U 25052A   25224.66365996  .00012053  00000-0  53216-3 0  9992
2 63210  97.4323 117.9994 0006288  97.2916 262.9035 15.21877480 22992
NUSHSAT 1
1 63211U 25052B   25225.50083761  .00012482  00000-0  54469-3 0  9991
2 63211  97.4311 118.8474 0006417  99.0606 261.1356 15.22268216 23128
TEVEL2-4
1 63213U 25052D   25225.46248419  .00014942  00000-0  65818-3 0  9994
2 63213  97.4226 118.5837 0005363 110.0207 250.1607 15.21910354 23117
TEVEL2-5
1 63214U 25052E   25225.13533925  .00011400  00000-0  50372-3 0  9993
2 63214  97.4228 118.2576 0005341 110.5992 249.5817 15.21867696 23068
TEVEL2-6
1 63215U 25052F   25225.59944244  .00011662  00000-0  51563-3 0  9997
2 63215  97.4227 118.7089 0005437 110.2882 249.8938 15.21839890 23133
TEVEL2-1
1 63217U 25052H   25225.42287335  .00013786  00000-0  61308-3 0  9999
2 63217  97.4203 118.4378 0005448 119.6463 240.5316 15.21602824 23107
TEVEL2-3
1 63218U 25052J   25225.48883986  .00011183  00000-0  49801-3 0  9993
2 63218  97.4205 118.5042 0005485 120.0191 240.1590 15.21605361 23114
TEVEL2-2
1 63219U 25052K   25225.42349539  .00013717  00000-0  61011-3 0  9991
2 63219  97.4205 118.4382 0005484 120.1206 240.0574 15.21597322 23105
TEVEL2-9
1 63237U 25052AD  25225.60704485  .00010557  00000-0  48767-3 0  9998
2 63237  97.4265 118.4728 0009413 137.5923 222.6041 15.20335259 23113
TEVEL2-7
1 63238U 25052AE  25225.61226590  .00010097  00000-0  46763-3 0  9999
2 63238  97.4266 118.4696 0009504 137.5702 222.6270 15.20258823 23110
TEVEL2-8
1 63239U 25052AF  25224.69410872  .00011127  00000-0  51569-3 0  9990
2 63239  97.4276 117.5555 0009419 140.8437 219.3482 15.20209180 22976
HYDRA-W
1 63490U 25052BL  25225.51992817  .00028921  00000-0  11122-2 0  9995
2 63490  97.4214 119.0956 0013220 135.6261 224.6040 15.26280586 23156
HADES-ICM (SO-125)
1 63492U 25052BN  25223.65468835  .00027031  00000-0  10629-2 0  9990
2 63492  97.4228 117.1711 0012972 145.2468 214.9620 15.25557255 22862
